AAL1147 KBOS-KPHL

Flight info

Callsign AAL1147
Flight time 0h 56m
Altitude 36000
Route SSOXS7 SSOXS Q167 RIFLE Q439 BRIGS JIIMS4
Aircraft A319/M-SDE3FGHIRWY/LB1

Departure

Time 2026-05-05 00:44
Airport Boston Logan International Airport (KBOS)

Arrival

Time 2026-05-05 01:41
Airport Philadelphia International Airport (KPHL)
Time Latitude Longitude Altitude Speed Heading
2026-05-05 00:20 42.36043 -71.01905 30 ft 0 kts 30°
2026-05-05 00:33 42.36039 -71.01908 25 ft 3 kts 31°
2026-05-05 00:33 42.36016 -71.01928 27 ft 4 kts 38°
2026-05-05 00:33 42.35997 -71.01952 28 ft 4 kts 58°
2026-05-05 00:34 42.35990 -71.01981 28 ft 3 kts 116°
2026-05-05 00:34 42.35992 -71.01985 29 ft 0 kts 121°
2026-05-05 00:36 42.35988 -71.01977 28 ft 4 kts 121°
2026-05-05 00:37 42.35978 -71.01955 31 ft 5 kts 121°
2026-05-05 00:37 42.35953 -71.01899 27 ft 9 kts 120°
2026-05-05 00:37 42.35920 -71.01805 26 ft 12 kts 110°
2026-05-05 00:37 42.35900 -71.01684 27 ft 14 kts 101°
2026-05-05 00:38 42.35897 -71.01556 27 ft 13 kts 53°
2026-05-05 00:38 42.35986 -71.01503 27 ft 15 kts 19°
2026-05-05 00:38 42.36089 -71.01453 28 ft 17 kts 19°
2026-05-05 00:38 42.36204 -71.01397 25 ft 18 kts 20°
2026-05-05 00:39 42.36329 -71.01336 26 ft 20 kts 19°
2026-05-05 00:39 42.36462 -71.01272 26 ft 21 kts 19°
2026-05-05 00:39 42.36604 -71.01204 26 ft 21 kts 20°
2026-05-05 00:39 42.36721 -71.01148 27 ft 15 kts 16°
2026-05-05 00:40 42.36816 -71.01182 26 ft 15 kts 317°
2026-05-05 00:40 42.36905 -71.01210 27 ft 16 kts 41°
2026-05-05 00:40 42.36992 -71.01108 26 ft 17 kts 31°
2026-05-05 00:40 42.37105 -71.01033 28 ft 19 kts 26°
2026-05-05 00:41 42.37228 -71.00953 27 ft 20 kts 26°
2026-05-05 00:41 42.37362 -71.00878 28 ft 22 kts 19°
2026-05-05 00:41 42.37507 -71.00808 28 ft 22 kts 19°
2026-05-05 00:41 42.37652 -71.00738 28 ft 22 kts 19°
2026-05-05 00:42 42.37770 -71.00682 27 ft 17 kts 19°
2026-05-05 00:42 42.37836 -71.00628 28 ft 7 kts 65°
2026-05-05 00:42 42.37830 -71.00562 28 ft 9 kts 108°
2026-05-05 00:42 42.37805 -71.00480 27 ft 10 kts 134°
2026-05-05 00:43 42.37772 -71.00482 28 ft 0 kts 199°
2026-05-05 00:43 42.37771 -71.00483 27 ft 1 kts 199°
2026-05-05 00:43 42.37695 -71.00519 27 ft 41 kts 199°
2026-05-05 00:44 42.37181 -71.00766 28 ft 112 kts 199°
2026-05-05 00:44 42.36312 -71.01182 334 ft 139 kts 199°
2026-05-05 00:44 42.35418 -71.01629 1098 ft 135 kts 202°
2026-05-05 00:44 42.34492 -71.01877 1855 ft 146 kts 180°
2026-05-05 00:45 42.33526 -71.01084 2322 ft 188 kts 141°
2026-05-05 00:45 42.32651 -70.99595 2736 ft 215 kts 136°
2026-05-05 00:45 42.31730 -70.97908 3445 ft 231 kts 126°
2026-05-05 00:45 42.31246 -70.95775 4236 ft 249 kts 96°
2026-05-05 00:46 42.31457 -70.93326 4747 ft 277 kts 77°
2026-05-05 00:46 42.31874 -70.90675 4960 ft 295 kts 78°
2026-05-05 00:46 42.32279 -70.87947 4991 ft 297 kts 78°
2026-05-05 00:46 42.32667 -70.85211 5003 ft 297 kts 78°
2026-05-05 00:47 42.32989 -70.82452 5028 ft 300 kts 87°
2026-05-05 00:47 42.32835 -70.79597 5837 ft 304 kts 103°
2026-05-05 00:47 42.32217 -70.76890 7011 ft 301 kts 115°
2026-05-05 00:47 42.31354 -70.74308 8039 ft 303 kts 116°
2026-05-05 00:48 42.30441 -70.71728 9051 ft 306 kts 122°
2026-05-05 00:48 42.29147 -70.69449 9989 ft 308 kts 138°
2026-05-05 00:48 42.27434 -70.67668 10590 ft 320 kts 154°
2026-05-05 00:48 42.25313 -70.66496 10923 ft 340 kts 166°
2026-05-05 00:49 42.22996 -70.65476 11357 ft 357 kts 165°
2026-05-05 00:49 42.21424 -70.64774 11845 ft 362 kts 165°
2026-05-05 00:49 42.19027 -70.63689 12668 ft 366 kts 165°
2026-05-05 00:49 42.16584 -70.62704 13536 ft 366 kts 172°
2026-05-05 00:50 42.14067 -70.62274 13906 ft 363 kts 182°
2026-05-05 00:50 42.11574 -70.62529 14172 ft 360 kts 195°
2026-05-05 00:50 42.09170 -70.63436 14932 ft 359 kts 202°
2026-05-05 00:50 42.06787 -70.64511 15655 ft 363 kts 202°
2026-05-05 00:51 42.04371 -70.65580 16348 ft 367 kts 202°
2026-05-05 00:51 42.01924 -70.66647 17026 ft 372 kts 202°
2026-05-05 00:51 41.99446 -70.67724 17701 ft 377 kts 202°
2026-05-05 00:51 41.96937 -70.68817 18330 ft 381 kts 202°
2026-05-05 00:52 41.94397 -70.69928 18888 ft 387 kts 202°
2026-05-05 00:52 41.91823 -70.71056 19458 ft 391 kts 202°
2026-05-05 00:52 41.89223 -70.72196 20044 ft 395 kts 202°
2026-05-05 00:52 41.86596 -70.73348 20614 ft 400 kts 202°
2026-05-05 00:53 41.83962 -70.74581 21154 ft 401 kts 207°
2026-05-05 00:53 41.81475 -70.76267 21692 ft 401 kts 214°
2026-05-05 00:53 41.79031 -70.78111 22197 ft 405 kts 214°
2026-05-05 00:53 41.76562 -70.79977 22723 ft 409 kts 214°
2026-05-05 00:54 41.74070 -70.81855 23227 ft 413 kts 214°
2026-05-05 00:54 41.71551 -70.83746 23692 ft 417 kts 214°
2026-05-05 00:54 41.69011 -70.85646 24107 ft 420 kts 214°
2026-05-05 00:54 41.66450 -70.87561 24511 ft 423 kts 214°
2026-05-05 00:55 41.63870 -70.89492 24921 ft 426 kts 214°
2026-05-05 00:55 41.61274 -70.91438 25320 ft 429 kts 214°
2026-05-05 00:55 41.58659 -70.93400 25709 ft 433 kts 214°
2026-05-05 00:55 41.56166 -70.95632 26082 ft 431 kts 223°
2026-05-05 00:56 41.53967 -70.98321 26467 ft 428 kts 232°
2026-05-05 00:56 41.52130 -71.01358 26845 ft 425 kts 240°
2026-05-05 00:56 41.50491 -71.04653 27222 ft 427 kts 241°
2026-05-05 00:56 41.48840 -71.07969 27590 ft 430 kts 241°
2026-05-05 00:57 41.47173 -71.11295 27956 ft 433 kts 241°
2026-05-05 00:57 41.45489 -71.14646 28303 ft 436 kts 241°
2026-05-05 00:57 41.43796 -71.18009 28624 ft 439 kts 241°
2026-05-05 00:57 41.42092 -71.21394 28941 ft 441 kts 241°
2026-05-05 00:58 41.40377 -71.24799 29260 ft 444 kts 241°
2026-05-05 00:58 41.38652 -71.28221 29576 ft 446 kts 241°
2026-05-05 00:58 41.36919 -71.31654 30010 ft 446 kts 241°
2026-05-05 00:58 41.35187 -71.35079 30413 ft 445 kts 241°
2026-05-05 00:59 41.33459 -71.38499 30794 ft 445 kts 241°
2026-05-05 00:59 41.31731 -71.41916 31167 ft 445 kts 242°
2026-05-05 00:59 41.30003 -71.45334 31542 ft 445 kts 242°
2026-05-05 00:59 41.28273 -71.48751 31875 ft 446 kts 242°
2026-05-05 01:00 41.26538 -71.52173 31957 ft 446 kts 242°
2026-05-05 01:00 41.23070 -71.58998 31962 ft 445 kts 241°
2026-05-05 01:01 41.19610 -71.65799 31983 ft 444 kts 241°
2026-05-05 01:01 41.16150 -71.72587 31976 ft 444 kts 241°
2026-05-05 01:02 41.12684 -71.79369 31988 ft 444 kts 241°
2026-05-05 01:02 41.09228 -71.86167 31989 ft 445 kts 241°
2026-05-05 01:03 41.05767 -71.92966 31982 ft 445 kts 241°
2026-05-05 01:03 41.02583 -71.99932 31991 ft 438 kts 250°
2026-05-05 01:04 41.00036 -72.07194 31990 ft 438 kts 250°
2026-05-05 01:04 40.96166 -72.18161 31990 ft 439 kts 250°
2026-05-05 01:05 40.93562 -72.25524 31969 ft 439 kts 250°
2026-05-05 01:05 40.90449 -72.32446 31971 ft 447 kts 236°
2026-05-05 01:06 40.86069 -72.38370 31982 ft 452 kts 229°
2026-05-05 01:06 40.81587 -72.44201 31988 ft 453 kts 229°
2026-05-05 01:07 40.76835 -72.49714 31986 ft 456 kts 224°
2026-05-05 01:07 40.71934 -72.55035 31937 ft 456 kts 224°
2026-05-05 01:08 40.69485 -72.57686 31110 ft 456 kts 225°
2026-05-05 01:08 40.67196 -72.60565 30143 ft 455 kts 229°
2026-05-05 01:08 40.64957 -72.63512 29068 ft 455 kts 229°
2026-05-05 01:08 40.62711 -72.66454 27940 ft 456 kts 229°
2026-05-05 01:09 40.60456 -72.69397 26789 ft 457 kts 228°
2026-05-05 01:09 40.58197 -72.72339 25852 ft 455 kts 228°
2026-05-05 01:09 40.55961 -72.75247 25426 ft 451 kts 228°
2026-05-05 01:09 40.53727 -72.78150 25185 ft 451 kts 228°
2026-05-05 01:10 40.51501 -72.81039 24945 ft 449 kts 227°
2026-05-05 01:10 40.49241 -72.83869 24696 ft 448 kts 226°
2026-05-05 01:10 40.46950 -72.86637 24447 ft 447 kts 226°
2026-05-05 01:10 40.44643 -72.89371 24208 ft 446 kts 225°
2026-05-05 01:11 40.42354 -72.92068 23435 ft 441 kts 225°
2026-05-05 01:11 40.40087 -72.94753 22575 ft 436 kts 225°
2026-05-05 01:11 40.37862 -72.97401 21817 ft 429 kts 226°
2026-05-05 01:11 40.35671 -73.00023 21080 ft 424 kts 226°
2026-05-05 01:12 40.33511 -73.02620 20374 ft 418 kts 226°
2026-05-05 01:12 40.31383 -73.05188 19734 ft 413 kts 226°
2026-05-05 01:12 40.29279 -73.07723 19488 ft 411 kts 226°
2026-05-05 01:12 40.27172 -73.10250 19238 ft 410 kts 226°
2026-05-05 01:13 40.25071 -73.12767 19010 ft 409 kts 226°
2026-05-05 01:13 40.22978 -73.15275 18772 ft 407 kts 226°
2026-05-05 01:13 40.20891 -73.17766 18536 ft 405 kts 226°
2026-05-05 01:13 40.18810 -73.20248 18304 ft 404 kts 226°
2026-05-05 01:14 40.16767 -73.22686 18041 ft 402 kts 226°
2026-05-05 01:14 40.14704 -73.25146 17770 ft 401 kts 226°
2026-05-05 01:14 40.12649 -73.27590 17510 ft 399 kts 226°
2026-05-05 01:14 40.10600 -73.30031 17238 ft 398 kts 226°
2026-05-05 01:15 40.08561 -73.32458 16975 ft 396 kts 226°
2026-05-05 01:15 40.06527 -73.34879 16716 ft 395 kts 226°
2026-05-05 01:15 40.04501 -73.37289 16466 ft 393 kts 226°
2026-05-05 01:15 40.02481 -73.39686 16210 ft 392 kts 226°
2026-05-05 01:16 40.00466 -73.42074 15944 ft 390 kts 226°
2026-05-05 01:16 39.98461 -73.44446 15706 ft 389 kts 226°
2026-05-05 01:16 39.96463 -73.46810 15462 ft 387 kts 226°
2026-05-05 01:16 39.94467 -73.49164 15213 ft 386 kts 225°
2026-05-05 01:17 39.92477 -73.51506 14953 ft 385 kts 225°
2026-05-05 01:17 39.90509 -73.53860 14709 ft 382 kts 228°
2026-05-05 01:17 39.88778 -73.56461 14474 ft 379 kts 234°
2026-05-05 01:17 39.87117 -73.59115 14242 ft 378 kts 233°
2026-05-05 01:18 39.85455 -73.61754 14001 ft 376 kts 233°
2026-05-05 01:18 39.83796 -73.64383 13761 ft 375 kts 233°
2026-05-05 01:18 39.82143 -73.67002 13492 ft 373 kts 233°
2026-05-05 01:18 39.80499 -73.69605 13227 ft 372 kts 233°
2026-05-05 01:19 39.78861 -73.72198 12970 ft 371 kts 233°
2026-05-05 01:19 39.77248 -73.74745 12709 ft 369 kts 233°
2026-05-05 01:19 39.75592 -73.77357 12442 ft 368 kts 233°
2026-05-05 01:19 39.73989 -73.79888 12188 ft 367 kts 233°
2026-05-05 01:20 39.72372 -73.82447 11933 ft 366 kts 233°
2026-05-05 01:20 39.70763 -73.84992 11677 ft 364 kts 233°
2026-05-05 01:20 39.69156 -73.87529 11430 ft 363 kts 233°
2026-05-05 01:20 39.67552 -73.90052 11179 ft 362 kts 233°
2026-05-05 01:21 39.65952 -73.92566 10939 ft 360 kts 233°
2026-05-05 01:21 39.64359 -73.95068 10683 ft 359 kts 233°
2026-05-05 01:21 39.62768 -73.97565 10439 ft 359 kts 233°
2026-05-05 01:21 39.61183 -74.00054 10208 ft 357 kts 233°
2026-05-05 01:22 39.59607 -74.02531 10053 ft 351 kts 233°
2026-05-05 01:22 39.58099 -74.04884 10063 ft 328 kts 233°
2026-05-05 01:22 39.56639 -74.07157 10070 ft 331 kts 233°
2026-05-05 01:22 39.55166 -74.09458 10056 ft 332 kts 234°
2026-05-05 01:23 39.53893 -74.11932 10059 ft 329 kts 244°
2026-05-05 01:23 39.53015 -74.14656 10059 ft 327 kts 255°
2026-05-05 01:23 39.52549 -74.17528 10055 ft 325 kts 265°
2026-05-05 01:23 39.52487 -74.20445 10058 ft 324 kts 272°
2026-05-05 01:24 39.52552 -74.23356 10044 ft 318 kts 272°
2026-05-05 01:24 39.52608 -74.26130 10043 ft 299 kts 272°
2026-05-05 01:24 39.52656 -74.28738 10046 ft 281 kts 272°
2026-05-05 01:24 39.52702 -74.31218 10046 ft 271 kts 272°
2026-05-05 01:25 39.52747 -74.33646 10044 ft 269 kts 272°
2026-05-05 01:25 39.52789 -74.36067 10042 ft 269 kts 272°
2026-05-05 01:25 39.52830 -74.38477 10042 ft 267 kts 272°
2026-05-05 01:25 39.52871 -74.40874 10043 ft 266 kts 272°
2026-05-05 01:26 39.52913 -74.43269 10048 ft 266 kts 272°
2026-05-05 01:26 39.52955 -74.45657 10044 ft 265 kts 272°
2026-05-05 01:26 39.52996 -74.48047 10048 ft 265 kts 272°
2026-05-05 01:26 39.53038 -74.50436 10046 ft 265 kts 272°
2026-05-05 01:27 39.53080 -74.52825 10049 ft 265 kts 272°
2026-05-05 01:27 39.53120 -74.55218 10044 ft 265 kts 272°
2026-05-05 01:27 39.53158 -74.57607 10044 ft 265 kts 272°
2026-05-05 01:27 39.53198 -74.59996 10045 ft 265 kts 272°
2026-05-05 01:28 39.53239 -74.62387 10047 ft 265 kts 272°
2026-05-05 01:28 39.53279 -74.64777 10044 ft 266 kts 272°
2026-05-05 01:28 39.53318 -74.67171 9936 ft 266 kts 272°
2026-05-05 01:28 39.53354 -74.69561 9811 ft 265 kts 272°
2026-05-05 01:29 39.53388 -74.71941 9503 ft 264 kts 272°
2026-05-05 01:29 39.53423 -74.74307 9138 ft 262 kts 271°
2026-05-05 01:29 39.53460 -74.76656 8886 ft 259 kts 271°
2026-05-05 01:29 39.53496 -74.79000 8748 ft 260 kts 271°
2026-05-05 01:30 39.53533 -74.81341 8587 ft 260 kts 271°
2026-05-05 01:30 39.53671 -74.83664 8430 ft 259 kts 283°
2026-05-05 01:30 39.54446 -74.85770 8304 ft 263 kts 306°
2026-05-05 01:30 39.55878 -74.87262 8160 ft 271 kts 330°
2026-05-05 01:31 39.57720 -74.87891 7934 ft 277 kts 346°
2026-05-05 01:31 39.59620 -74.88288 7682 ft 277 kts 346°
2026-05-05 01:31 39.61527 -74.88675 7432 ft 277 kts 346°
2026-05-05 01:31 39.63430 -74.89060 7183 ft 277 kts 346°
2026-05-05 01:32 39.65333 -74.89448 6935 ft 277 kts 346°
2026-05-05 01:32 39.67236 -74.89839 6680 ft 277 kts 346°
2026-05-05 01:32 39.69137 -74.90231 6435 ft 276 kts 346°
2026-05-05 01:32 39.71035 -74.90628 6201 ft 276 kts 345°
2026-05-05 01:33 39.72934 -74.91028 6030 ft 277 kts 345°
2026-05-05 01:33 39.74833 -74.91427 6010 ft 277 kts 346°
2026-05-05 01:33 39.76742 -74.91818 5959 ft 279 kts 346°
2026-05-05 01:33 39.78627 -74.92191 5648 ft 275 kts 346°
2026-05-05 01:34 39.80499 -74.92555 5349 ft 269 kts 346°
2026-05-05 01:34 39.82356 -74.92910 5029 ft 264 kts 346°
2026-05-05 01:34 39.84139 -74.93244 4712 ft 261 kts 346°
2026-05-05 01:34 39.85919 -74.93576 4381 ft 257 kts 346°
2026-05-05 01:35 39.87709 -74.93917 4028 ft 255 kts 346°
2026-05-05 01:35 39.89352 -74.94609 3653 ft 244 kts 321°
2026-05-05 01:35 39.90435 -74.96159 3350 ft 231 kts 294°
2026-05-05 01:35 39.91118 -74.98031 3075 ft 227 kts 288°
2026-05-05 01:36 39.91723 -74.99873 2990 ft 215 kts 284°
2026-05-05 01:36 39.91839 -75.01696 2853 ft 198 kts 254°
2026-05-05 01:36 39.91434 -75.03437 2528 ft 198 kts 249°
2026-05-05 01:36 39.91022 -75.05088 2403 ft 190 kts 249°
2026-05-05 01:37 39.90684 -75.06678 2354 ft 172 kts 252°
2026-05-05 01:37 39.90439 -75.08112 2193 ft 157 kts 249°
2026-05-05 01:37 39.90162 -75.09445 1985 ft 148 kts 247°
2026-05-05 01:37 39.89888 -75.10701 1748 ft 141 kts 246°
2026-05-05 01:38 39.89624 -75.11887 1548 ft 133 kts 246°
2026-05-05 01:38 39.89403 -75.12998 1450 ft 125 kts 247°
2026-05-05 01:38 39.89189 -75.14079 1271 ft 122 kts 246°
2026-05-05 01:38 39.89037 -75.14798 1140 ft 122 kts 246°
2026-05-05 01:39 39.88830 -75.15867 976 ft 122 kts 247°
2026-05-05 01:39 39.88607 -75.16941 813 ft 125 kts 249°
2026-05-05 01:39 39.88373 -75.18039 696 ft 126 kts 250°
2026-05-05 01:39 39.88149 -75.19148 537 ft 127 kts 250°
2026-05-05 01:40 39.87929 -75.20260 386 ft 127 kts 249°
2026-05-05 01:40 39.87709 -75.21368 197 ft 125 kts 251°
2026-05-05 01:40 39.87490 -75.22462 38 ft 124 kts 251°
2026-05-05 01:40 39.87290 -75.23437 26 ft 92 kts 256°
2026-05-05 01:41 39.87174 -75.24030 26 ft 48 kts 256°
2026-05-05 01:41 39.87162 -75.24328 27 ft 21 kts 282°
2026-05-05 01:41 39.87190 -75.24454 28 ft 11 kts 311°
2026-05-05 01:41 39.87226 -75.24384 26 ft 12 kts 77°
2026-05-05 01:42 39.87246 -75.24268 28 ft 14 kts 77°
2026-05-05 01:42 39.87281 -75.24191 27 ft 9 kts
2026-05-05 01:42 39.87344 -75.24223 27 ft 11 kts 339°
2026-05-05 01:42 39.87398 -75.24234 28 ft 6 kts 356°
2026-05-05 01:43 39.87431 -75.24193 26 ft 6 kts 57°
2026-05-05 01:43 39.87437 -75.24182 28 ft 0 kts 57°